Amarillo, TX

9:18 AM CDT on April 23, 2018 (GMT -0500)
Amarillo International

Weather History for KAMA - January, 2012

Change the Weather History Date:

Tuesday, January 24, 2012

  Actual Average Record
Temperature  
Mean Temperature 45 °F 37 °F  
Max Temperature 56 °F 51 °F 79 °F (1970)
Min Temperature 33 °F 24 °F -2 °F (1894)
Degree Days  
Heating Degree Days 20 28  
Month to date heating degree days 556 678  
Since 1 July heating degree days 2222 2395  
Cooling Degree Days 0 0  
Month to date cooling degree days 0 0  
Year to date cooling degree days 0 0  
Moisture  
Dew Point 30 °F    
Average Humidity 59    
Maximum Humidity 89    
Minimum Humidity 29    
Precipitation  
Precipitation 0.03 in 0.02 in 0.11 in (1978)
Month to date precipitation 0.05 0.52  
Year to date precipitation 0.05 0.52  
Snow  
Snow 0.00 in 0.20 in 2.50 in (1978)
Month to date snowfall 0.0 3.4  
Since 1 July snowfall 9.7 9.8  
Snow Depth 0.00 in    
Sea Level Pressure  
Sea Level Pressure 29.94 in    
Wind  
Wind Speed 13 mph (ESE)    
Max Wind Speed 25 mph    
Max Gust Speed 31 mph    
Visibility 10 miles    
Events Rain , Snow , Thunderstorm    
T = Trace of Precipitation, MM = Missing Value Source: NWS Daily Summary

Daily Weather History Graph

Daily Weather History Graph

Search for Another Location

Airport or City:

Astronomy

Jan. 24, 2012 Rise Set
Actual Time 7:51 AM CST 6:06 PM CST
Civil Twilight 7:24 AM CST 6:33 PM CST
Nautical Twilight 6:53 AM CST 7:04 PM CST
Astronomical Twilight 6:23 AM CST 7:34 PM CST
Moon 8:26 AM CST (1/24) 7:54 PM CST (1/24)
Length of Visible Light 11h 09m
Length of Day
10h 15m
New Moon, 2% of the Moon is Illuminated
Jan 24
New Moon
Jan 30
First Quarter
Feb 7
Full
Feb 14
Last Quarter
Feb 21
New

Hourly Weather History & Observations

Time (CST) Temp. Windchill Dew Point Humidity Pressure Visibility Wind Dir Wind Speed Gust Speed Precip Events Conditions
12:53 AM 45.0 °F 38.2 °F 19.9 °F 37% 29.83 in 10.0 mi SSW 15.0 mph - N/A   Clear
1:53 AM 39.0 °F 31.4 °F 19.9 °F 46% 29.84 in 10.0 mi South 12.7 mph - N/A   Clear
2:53 AM 36.0 °F 32.1 °F 21.0 °F 55% 29.85 in 10.0 mi South 4.6 mph - N/A   Clear
3:53 AM 37.9 °F 31.5 °F 21.9 °F 53% 29.83 in 10.0 mi SSE 9.2 mph - N/A   Clear
4:53 AM 39.2 °F 35.0 °F 23.0 °F 52% 29.88 in 10.0 mi SSE 5.8 mph - N/A   Clear
5:53 AM 39.2 °F 32.5 °F 23.0 °F 52% 29.87 in 10.0 mi SSE 10.4 mph - N/A   Clear
6:53 AM 35.1 °F 26.4 °F 23.0 °F 61% 29.86 in 10.0 mi SE 12.7 mph - N/A   Clear
7:53 AM 33.8 °F 24.3 °F 24.8 °F 70% 29.89 in 10.0 mi SE 13.8 mph - N/A   Clear
8:53 AM 36.0 °F 27.1 °F 27.0 °F 70% 29.89 in 10.0 mi SSE 13.8 mph - N/A   Clear
9:53 AM 41.0 °F 32.5 °F 28.0 °F 60% 29.89 in 10.0 mi SSE 17.3 mph - N/A   Clear
10:53 AM 45.0 °F 38.2 °F 26.1 °F 48% 29.88 in 10.0 mi South 15.0 mph - N/A   Clear
11:53 AM 48.0 °F - 26.1 °F 42% 29.88 in 10.0 mi South 16.1 mph - N/A   Clear
12:53 PM 52.0 °F - 27.0 °F 38% 29.85 in 10.0 mi SSE 13.8 mph - N/A   Clear
1:53 PM 55.9 °F - 27.0 °F 33% 29.83 in 10.0 mi South 11.5 mph - N/A   Clear
2:53 PM 55.4 °F - 33.8 °F 44% 29.89 in 10.0 mi SE 15.0 mph - N/A   Clear
3:53 PM 55.9 °F - 39.9 °F 55% 29.86 in 10.0 mi SE 11.5 mph - N/A   Clear
4:53 PM 55.0 °F - 41.0 °F 59% 29.86 in 10.0 mi Calm Calm - N/A   Clear
5:53 PM 52.0 °F - 39.9 °F 63% 29.90 in 10.0 mi NNE 6.9 mph - N/A   Clear
6:53 PM 51.1 °F - 37.9 °F 61% 29.92 in 10.0 mi North 10.4 mph - N/A   Overcast
7:07 PM 51.8 °F - 37.4 °F 58% 29.97 in 10.0 mi NNE 13.8 mph 19.6 mph N/A Thunderstorm Overcast
7:48 PM 42.8 °F 34.5 °F 32.0 °F 66% 30.01 in 10.0 mi North 18.4 mph - 0.00 in   Overcast
7:53 PM 43.0 °F 35.1 °F 32.0 °F 65% 30.02 in 10.0 mi North 17.3 mph - 0.00 in   Overcast
8:53 PM 36.0 °F 25.0 °F 32.0 °F 86% 30.10 in 5.0 mi NNE 20.7 mph - 0.01 in Snow , Thunderstorm Light Thunderstorms and Snow
9:01 PM 35.6 °F 25.9 °F 32.0 °F 87% 30.09 in 5.0 mi North 16.1 mph - 0.00 in Rain Light Rain
9:53 PM 35.6 °F 26.2 °F 33.8 °F 93% 30.11 in 10.0 mi North 15.0 mph - N/A   Overcast
10:27 PM 35.6 °F 25.9 °F 33.8 °F 93% 30.12 in 10.0 mi North 16.1 mph - 0.01 in   Overcast
10:53 PM 36.0 °F 24.7 °F 32.0 °F 86% 30.11 in 10.0 mi North 21.9 mph 29.9 mph 0.01 in   Overcast
11:42 PM 35.6 °F 24.8 °F 30.2 °F 81% 30.13 in 10.0 mi North 19.6 mph - N/A   Mostly Cloudy
11:53 PM 36.0 °F 25.3 °F 30.9 °F 82% 30.12 in 10.0 mi North 19.6 mph - N/A   Overcast